Location: Unspecified
(0.0000°N, 0.0000°E)
Time: 17:50:53
(UTC+00:00)

Hubble Space Telescope - Pass Details

Date: 22 January 2020
Orbit: 536 x 540 km, 28.5° (Epoch: 23 January)

Event Time Altitude Azimuth Distance (km) Brightness Sun altitude
Exits shadow 05:10:56 - 226° (SW) 2,690 4.1 -14.2°
Rises 05:10:59 0° 225° (SW) 2,671 4.1 -14.2°
Reaches altitude 10° 05:13:23 10° 216° (SW) 1,780 3.3 -13.6°
Maximum altitude 05:17:08 34° 150° (SSE) 897 2.4 -12.7°
Drops below altitude 10° 05:20:53 10° 85° (E) 1,777 4.5 -11.9°
Sets 05:23:17 0° 75° (ENE) 2,666 5.3 -11.3°
